424  
ASUS41 KAKQ 192017  
RWRAKQ  
 
REGIONAL WEATHER ROUNDUP  
NATIONAL WEATHER SERVICE WAKEFIELD VA  
300 PM EST WED FEB 19 2020  
 
NOTE: "FAIR" INDICATES FEW OR NO CLOUDS BELOW 12,000 FEET WITH NO  
SIGNIFICANT WEATHER AND/OR S TO VISIBILITY
. * = DENOTES  
STATION MAY NOT REPORT PRECIPITATION (E.G., RAIN,SNOW,ETC.),
 
THUNDER OR FOG.  
 
VAZ042-051-052>054-056-192100-  
NORTHERN VIRGINIA  
 
CITY SKY/WX TMP DP RH WIND PRES REMARKS
 
WASH NATIONAL PTSUNNY 52 19 27 NW10G21 30.33F  
DULLES PTSUNNY 52 17 25 NW17 30.31F  
FORT BELVOIR FAIR 52 17 25 NW13G20 30.32F  
QUANTICO PTSUNNY 51 17 26 NW10 30.35S  
FREDERICKSBRG* FAIR 51 21 31 NW10 30.33F  
STAFFORD* FAIR 51 17 26 N6 30.38S  
WARRENTON FAIR 54 10 17 W9 30.33S  
CULPEPER* FAIR 53 11 18 W7 30.34F  
MANASSAS* FAIR 52 21 29 N13 30.33F  
LEESBURG* FAIR 52 19 28 NW15G23 30.32F  
WINCHESTER FAIR 46 16 29 NW10 30.30S  
FRONT ROYAL* FAIR 50 12 22 NW10G21 30.31S  
LURAY* FAIR 50 12 22 CALM 30.31S  

 
 
VAZ048-049-060>072-079>083-192100-  
CENTRAL AND SOUTH CENTRAL VIRGINIA  
 
CITY SKY/WX TMP DP RH WIND PRES REMARKS
 
RICHMOND PTSUNNY 50 18 28 N6 30.34S  
CHESTERFIELD* FAIR 51 23 33 NW8 30.34F  
PETERSBURG* FAIR 51 22 33 N7 30.35S  
HANOVER FAIR 51 22 31 N6 30.35S  
TAPPAHANNOCK* FAIR 50 20 31 N7 30.34S  
QUINTON* FAIR 50 19 28 N8 30.34S  
CHARLOTTSVILLE FAIR 53 14 21 VRB6 30.33F  
GORDONSVILLE* FAIR 50 13 22 NW5 30.34S  
ORANGE* FAIR 50 14 23 N6 30.34S  
LOUISA* FAIR 50 15 24 W10 30.38S  
BUMPASS* FAIR 50 7 17 NW7 30.34S  
FARMVILLE* FAIR 51 26 37 N5 30.33F  
CREWE* FAIR 49 25 38 CALM 30.34S  
FORT PICKETT* FAIR 50 31 47 N6 30.34S  
CHASE CITY* CLOUDY 50 32 49 CALM 30.34S  
CLARKSVILLE* CLOUDY 50 32 50 CALM 30.34S  
SOUTH HILL* CLOUDY 49 32 51 CALM 30.40S  
LAWRENCEVILLE* CLOUDY 50 26 38 NW3 30.35S  
EMPORIA* PTSUNNY 50 27 40 N8 30.36S  

 
 
VAZ088>098-192100-  
SOUTHEAST VIRGINIA  
 
CITY SKY/WX TMP DP RH WIND PRES REMARKS
 
NORFOLK CLOUDY 49 33 54 N12 30.33S  
VIRGINIA BEACH PTSUNNY 47 25 42 N12 30.33S  
NORFOLK NAVAL CLOUDY 49 33 54 NE10 30.35S  
WEST POINT* FAIR 51 20 29 NW8 30.36F  
SALUDA* FAIR 49 23 36 W5 30.34S  
NEWPORT NEWS CLOUDY 51 21 30 N8 30.34S  
LANGLEY AFB CLOUDY 50 28 42 NE8 30.32F  
FORT EUSTIS CLOUDY 51 19 28 N8 30.32S  
WILLIAMSBURG* FAIR 54 27 35 CALM 30.35F  
HR EXEC AP* CLOUDY 50 34 54 NE5 30.34S  
FRANKLIN* CLOUDY 50 25 38 N7 30.35R  
US460-WAKEFLD CLOUDY 51 24 34 VRB3 30.34S  

 
 
VAZ020-022-025-037-045-192100-  
WEST CENTRAL AND SOUTHWEST VIRGINIA  
 
CITY SKY/WX TMP DP RH WIND PRES REMARKS
 
STAUNTON* FAIR 48 13 24 N6 30.35S  
WAYNESBORO* FAIR 47 9 21 NW7 30.33R  
HOT SPRINGS VA FAIR 35 10 35 NW10 30.28S  
LYNCHBURG FAIR 52 13 21 VRB5 30.34R  
DANVILLE CLOUDY 53 33 46 N7 30.34S  
SOUTH BOSTON* CLOUDY 51 34 51 CALM 30.35S  
MARTINSVILLE FAIR 52 25 34 NE6 30.37S  
ROANOKE PTSUNNY 51 15 23 N13 30.37S  
BLACKSBURG FAIR 45 18 33 N7 30.37S  
DUBLIN* FAIR 45 18 35 NW12 30.36F  
MARION* FAIR 46 18 33 N8 30.37S  
HILLSVILLE* FAIR 43 13 29 NW9 30.32S  
RICHLANDS* FAIR 40 19 42 NW6 30.36S  
WISE* FAIR 41 23 48 NE8 30.37S  
ABINGDON* FAIR 45 18 34 E6 30.37S  

 
 
MDZ021>025-VAZ099-100-192100-  
SOUTHERN MARYLAND AND THE DELMARVA PENINSULA  
 
CITY SKY/WX TMP DP RH WIND PRES REMARKS
 
PATUXENT RIVER PTSUNNY 50 22 33 NW13 30.33S  
BAY BRIDGE APT FAIR 50 25 37 W6 30.31S  
LEONARDTOWN FAIR 48 16 27 W8 30.34S  
DOVER FAIR 50 18 27 W10 30.28S  
GEORGETOWN FAIR 49 24 37 W8 30.30S  
EASTON MOSUNNY 48 19 32 W7 30.34F  
CAMBRIDGE SUNNY 48 21 34 NW8 30.32F  
SALISBURY FAIR 49 20 31 NW12 30.31R  
TANGIER NOT AVBL  
OCEAN CITY FAIR 50 21 32 NW7 30.30R  
WALLOPS ISLAND FAIR 50 21 32 NW10 30.32R  
ACCOMACK* NOT AVBL  

 
 
NCZ012>017-030>032-192100-  
NORTH CENTRAL AND EASTERN NORTH CAROLINA  
 
CITY SKY/WX TMP DP RH WIND PRES REMARKS
 
ROANOKE RAPIDS MOCLDY 46 32 57 NE5 30.35S  
RALEIGH LGT RAIN 49 38 65 NE8 30.35S  
ELIZABETH CITY CLOUDY 50 32 50 N15 30.33S  
AHOSKIE* CLOUDY 48 30 49 N7 30.35R  
EDENTON* DRIZZLE 51 36 55 NE7 30.34R  
CURRITUCK* CLOUDY 48 36 64 N9 30.33S  
KILL DEVIL HLS CLOUDY 47 35 64 N9G18 30.30S  
MANTEO CLOUDY 47 36 63 NE16 30.32R  
CAPE HATTERAS CLOUDY 51 39 63 NE12G26 30.29R  
TARBORO* CLOUDY 50 29 44 N7 30.35R  
GOLDSBORO CLOUDY 51 31 47 NE13 30.32R  
WASHINGTON CLOUDY 50 35 57 N9 30.33S  
GREENVILLE LGT RAIN 50 37 62 NE6 30.34R  
NEW BERN CLOUDY 49 39 68 NE14 30.32R  
WILMINGTON CLOUDY 51 43 74 N12 30.30R  

 
 
VAZ048-192100-  
ELSEWHERE  
 
CITY SKY/WX TMP DP RH WIND PRES REMARKS
 
HARRISBURG PA PTSUNNY 48 18 30 NW20 30.28R  
BALTIMORE PTSUNNY 53 13 20 NW14G26 30.29F  
ANNAPOLIS FAIR 50 20 30 NW8 30.30F  
ANDREWS AFB FAIR 50 17 27 NW13 30.31S  
PHILADELPHIA FAIR 50 14 23 NW15 30.27R  
HENDERSON NC FAIR 48 31 52 NE5 30.35R  
GREENSBORO PTSUNNY 51 29 42 NE7 30.33S  
ROCKY MOUNT LGT RAIN 50 28 42 N16 30.35R  

 
 
VAZ100-192100-  
MARINE  
 
STATION/POSITION TIME TEMP WIND PRES WAVE SWELL
 
AIR SEA DIR/SP/G HT/PER HT/PER  
(UTC) (F) (DEG/KT/KT) (MB) (FT/S) (FT/S)  
CAPE MAY NJ 1930 46 44 290/ 6/ 9 1025.4S  
LEWES DE 1930 46 45 320/ 10/ 13 1026.0R  
15NM E FENWICK I 1950 44 48 330/ 10/ 12 1022.5S 3/ 4 2/ 8  
OCEAN-CITY-INLET 1930 49 47 360/ 9/ 12 1026.6R  
WACHAPREAGUE VA 1930 49 50 340/ 3/ 8 1026.8R  
THOMAS POINT MD 2000 48 43 310/ 10/ 14 1027.1F  
SOLOMONS ISLAND 1930 48 45 330/ 9/ 12 1026.7S  
BISHOPS HEAD MD 1930 47 47 310/ 10/ 14 1026.7R  
PINEY POINT MD 1924 300/ 13/ 16 N/A  
POTOMAC MD 1954 45 45 270/ 12/ 12 1027.4R  
CAMBRIDGE MD 1930 46 45 280/ 8/ 12 1026.8R  
LEWISETTA VA 1930 48 46 1027.4R  
RAPPAHANNOCK LGT 1924 350/ 10/ 13 1028.1  
STINGRAY PT 1942 47 40/ 6/ 6 1031.6R  
YORK RVR RNG VA 1930 48 350/ 9/ 10 1028.0R  
YORKTOWN VA 1930 49 48 320/ 6/ 8 1026.9F  
DOMINION TERM VA 1930 51 60/ 2/ 6 1027.5R  
KIPTOPEKE VA 1924 47 360/ 11/ 14 N/A  
CAPE HENRY VA 1930 46 350/ 16/ 18 1027.6R  
WILLOUBY STN VA 1924 46 30/ 10/ 12 1027.2  
S CRANEY ISL VA 1930 48 30/ 9/ 11 1027.0R  
CAPE HENRY BUOY 2000 47 N/A 3/ 4  
1ST LANDING BUOY 1950 30/ 14/ 16 1027.4R  
64NM E OF VA BCH 1950 49 52 360/ 17/ 21 1026.2R 6/ 6 2/10  
DUCK PIER NC 1930 47 10/ 16/ 19 1025.9R  
44100 DUCK FRF 2000 49 N/A 6/ 6 2/17  
44056 DUCK FRF 2000 48 N/A 5/ 5 2/15  
OREGON INLET NC 1930 47 51 1025.9R  
HATTERAS NC 1930 50 56 10/ 23/ 26 1025.0S  
DIAMOND SHLS NC 2000 53 10/ 25/ 31 1024.2  
CAPE LOOKOUT NC 2000 51 10/ 17/ 23 1025.7R  

 
 
 
CLICK HERE TO GO TO PREVIOUS BULLETINS.

The Nexlab VA Page
The Nexlab NC Page
The Nexlab MD Page Main Text Page